Location: Waco, TX
(31.5480°N, 97.1670°W)
Time: 12:27:29
(UTC-05:00)

ISS - Pass Details

Date: 13 October 2018
Orbit: 403 x 408 km, 51.6° (Epoch: 23 October)

Event Time Altitude Azimuth Distance (km) Brightness Sun altitude
Rises 20:42:39 0° 296° (WNW) 2,329 1.2 -22.9°
Reaches altitude 10° 20:45:16 10° 274° (W) 1,464 0.1 -23.5°
Maximum altitude 20:47:24 16° 233° (SW) 1,140 -1.0 -23.9°
Enters shadow 20:48:34 14° 208° (SSW) 1,242 -1.1 -24.2°
Drops below altitude 10° 20:49:32 10° 192° (SSW) 1,457 - -24.4°
Sets 20:52:08 0° 170° (S) 2,311 - -24.9°
